Location: Fasanenhof
(48.7107°N, 9.1590°E)
Time: 06:54:13
(UTC+00:00)

ISS - Visible Passes

Search period start: 09 May 2021 00:00
Search period end: 19 May 2021 00:00
Orbit: 418 x 421 km, 51.6° (Epoch: 09 May)

Date Brightness Start Highest point End Pass type
(mag) Time Alt. Az. Time Alt. Az. Time Alt. Az.
09 May -2.9 01:36:22 19° WNW 01:38:35 50° N 01:41:54 10° ENE visible
09 May -0.8 23:17:26 11° ENE 23:17:26 11° ENE 23:17:32 10° ENE visible
10 May -3.1 00:50:22 44° NW 00:51:05 55° N 00:54:25 10° ENE visible
10 May -3.1 02:24:50 10° WNW 02:28:11 57° N 02:31:32 10° E visible
11 May -2.8 00:04:20 47° NE 00:04:20 47° NE 00:06:57 10° ENE visible
11 May -2.9 01:37:22 10° WNW 01:40:41 51° N 01:44:00 10° E visible
11 May -1.6 23:18:15 21° ENE 23:18:15 21° ENE 23:19:30 10° ENE visible
12 May -2.8 00:51:10 21° WNW 00:53:09 49° N 00:56:28 10° ENE visible
12 May -3.7 02:26:48 10° WNW 02:30:11 87° NNE 02:33:35 10° ESE visible
13 May -2.9 00:05:00 42° NW 00:05:38 50° N 00:08:56 10° ENE visible
13 May -3.5 01:39:20 10° WNW 01:42:43 69° NNE 01:46:05 10° E visible
13 May -2.9 23:18:36 49° NNE 23:18:36 49° NNE 23:21:27 10° ENE visible
14 May -3.1 00:51:52 10° WNW 00:55:13 57° N 00:58:34 10° E visible
14 May -3.5 02:28:45 10° WNW 02:32:02 48° SSW 02:35:18 10° SE visible
14 May -3.3 20:50:45 10° SW 20:53:53 37° SSE 20:55:35 21° E visible
14 May -3.4 22:27:15 10° W 22:30:36 64° NNW 22:33:58 10° ENE visible
15 May -2.9 00:04:23 10° WNW 00:07:42 51° N 00:11:01 10° E visible
15 May -3.9 01:41:15 10° WNW 01:44:38 69° SSW 01:47:59 10° ESE visible
15 May -2.7 20:03:44 10° SSW 20:06:33 25° SE 20:09:23 10° E visible
15 May -3.7 21:39:44 10° WSW 21:43:07 80° NNW 21:46:31 10° ENE visible
15 May -2.8 23:16:52 10° WNW 23:20:10 49° N 23:23:28 10° ENE visible
16 May -3.8 00:53:47 10° WNW 00:57:11 88° NNE 01:00:34 10° ESE visible
16 May -2.5 02:31:00 10° W 02:33:41 22° SW 02:36:22 10° SSE visible
16 May -3.9 20:52:17 10° WSW 20:55:39 77° SSE 20:59:02 10° ENE visible
16 May -2.9 22:29:19 10° W 22:32:37 50° N 22:35:56 10° ENE visible
17 May -3.5 00:06:19 10° WNW 00:09:42 69° NNE 00:13:04 10° E visible
17 May -3.1 01:43:18 10° W 01:46:22 32° SW 01:49:25 10° SSE visible
17 May -3.7 20:04:56 10° SW 20:08:13 54° SSE 20:11:32 10° ENE visible
17 May -3.0 21:41:46 10° W 21:45:05 54° N 21:48:25 10° ENE visible
17 May -3.2 23:18:51 10° WNW 23:22:11 57° N 23:22:50 47° ENE visible
18 May -3.3 20:54:12 10° W 20:57:33 64° NNW 21:00:56 10° ENE visible
18 May -2.9 22:31:20 10° WNW 22:34:39 51° N 22:36:24 24° ENE visible
